EHI
0 0 0 0 0 0 0 0 0 0 0 0 0 0 0 0 0 0 0 0 0 0 0 0 0 0 0 0 0 0 0 0 0 0 0 0 0 0
0 0 0 0 0 0 0 0 0 0 0 0 0 0 0 0 0 0 0 0 0 0 0 0 0 0 0 0 0 0 0 0 0 0 0 0 0 0
0 0 0 0 0 0 0 0 0 0 0 0 0 0 0 0 0 0 0 0 0 0 0 0 0 0 0 0 0 0 0 0 0 0 0 0 0 0
0 0 0 0 0 0 0 0 0 0 0 0 0 0 0 0 0 0 0 0 0 0 0 0 0 0 0 0 0 0 0 0 0 0 0 0 0 0
0 0 0 0 0 0 0 0 0 0 0 0 0 0 0 0 0 0 0 0 0 0 0 0 0 0 0 0 0 0 0 0 0 0 0 0 0 0
0 0 0 0 0 0 0 0 0 0 0 0 0 0 0 0 0 0 0 0 0 0 0 0 0 0 0 0 0 0 0 0 0 0 0 0 0 0
0 0 0 0 0 0 0 0 0 0 0 0 0 0 0 0 0 0 0 0 0 0 0 0 0 0 0 0 0 0 0 0 0 0 0 0 0 0
0 0 0 0 0 0 0 0 0 0 0 0 0 0 0 0 0 0 0 0 0 0 0 0 0 0 0 0 0 0 0 0 0 0 0 0 0 0
0 0 0 0 0 0 0 0 0 0 0 0 0 0 0 0 0 0 0 0 0 0 0 0 0 0 0 0 0 0 0 0 0 0 0 0 0 0
0 0 0 0 0 0 0 0 0 0 0 0 0 0 0 0 0 0 0 0 0 0 0 0 0 0 0 0 0 0 0 0 0 0 0 0 0 0
0 0 0 0 0 0 0 0 0 0 0 0 0 0 0 0 0 0 0 0 0 0 0 0 0 0 0 0 0 0 0 0 0 0 0 0 0 0
0 0 0 0 0 0 0 0 0 0 0 0 0 0 0 0 0 0 0 0 0 0 0 0 0 0 0 0 0 0 0 0 0 0 0 0 0 0
0 0 0 0 0 0 0 0 0 0 0 0 0 0 0 0 0 0 0 0 0 0 0 0 0 0 0 0 0 0 0 0 0 0 0 0 0 0
0 0 0 0 0 0 0 0 0 0 0 0 0 0 0 0 0 0 0 0 0 0 0 0 0 0 0 0 0 0 0 0 0 0 0 0 0 0
0 0 0 0 0 0 0 0 0 0 0 0 0 0 0 0 0 0 0 0 0 0 0 0 0 0 0 0 0 0 0 0 0 0 0 0 0 0
0 0 0 0 0 0 0 0 0 0 0 0 0 0 0 0 0 0 0 0 0 0 0 0 0 0 0 0 0 0 0 0 0 0 0 0 0 0
0 0 0 0 0 0 0 0 0 0 0 0 0 0 0 0 0 0 0 0 0 0 0 0 0 0 0 0 0 0 0 0 0 0 0 0 0 0
0 0 0 0 0 0 0 0 0 0 0 0 0 0 0 0 0 0 0 0 0 0 0 0 0 0 0 0 0 0 0 0 0 0 0 0 0 0
0 0 0 0 0 0 0 0 0 0 0 0 0 0 0 0 0 0 0 0 0 0 0 0 0 0 0 0 0 0 0 0 0 0 0 0 0 0
0 0 0 0 0 0 0 0 0 0 0 0 0 0 0 0 0 0 0 0 0 0 0 0 0 0 0 0 0 0 0 0 0 0 0 0 0 0
0 0 0 0 0 0 0 0 0 0 0 0 0 0 0 0 0 0 0 0 0 0 0 0 0 0 0 0 0 0 0 0 0 0 0 0 0 0
0 0 0 0 0 0 0 0 0 0 0 0 0 0 0 0 0 0 0 0 0 0 0 0 0 0 0 0 0 0 0 0 0 0 0 0 0 0
0 0 0 0 0 0 0 0 0 0 0 0 0 0 0 0 0 0 0 0 0 0 0 0 0 0 0 0 0 0 0 0 0 0 0 0 0 0
Wind_Speed
3 3 3 2 2 2 2 2 2 3 4 3 2 2 3 2 4 3 3 7 8 8 9 9 9 10 10 10 11 11 11 10 11 12 11 12 13 13
3 3 3 2 2 2 2 2 3 3 4 3 3 3 3 3 5 3 3 8 8 9 9 9 9 9 10 10 11 11 11 11 11 12 12 12 12 13
3 3 4 3 2 2 2 2 3 3 5 5 3 3 3 3 3 3 3 3 4 9 10 10 9 9 9 10 10 10 11 11 11 12 12 12 13 13
4 4 4 3 3 3 2 3 3 3 4 6 4 2 3 3 3 3 3 4 3 8 10 10 10 9 10 10 10 10 10 10 11 11 11 12 12 13
5 5 5 4 4 3 4 4 3 3 3 4 4 2 2 2 2 3 3 3 4 5 8 9 10 10 10 10 10 10 9 10 10 10 10 11 11 12
5 5 5 5 6 5 4 4 4 4 3 4 4 3 2 2 1 2 4 3 4 4 5 6 9 10 10 10 10 9 9 10 10 9 9 10 10 11
5 5 5 7 8 6 5 4 4 4 3 3 4 3 2 2 2 2 3 4 4 2 3 4 4 4 5 8 9 9 9 10 10 9 9 9 9 10
5 5 5 6 8 10 10 8 6 5 5 4 4 4 4 3 2 3 3 3 4 2 3 5 3 4 4 4 8 9 9 10 9 9 9 9 9 9
5 4 4 5 6 5 7 9 8 9 8 5 6 6 5 4 3 3 3 4 5 3 3 5 3 5 4 5 9 9 9 8 7 7 7 6 6 6
4 4 4 4 4 4 4 4 5 6 7 6 6 6 5 4 4 4 4 4 4 3 2 4 3 4 5 4 8 8 7 7 6 6 6 6 6 6
4 4 4 5 7 6 4 4 5 5 5 7 7 6 6 6 4 2 2 3 4 3 1 2 3 4 4 3 5 7 6 6 6 7 7 7 7 6
3 4 6 6 8 7 5 4 5 5 3 3 4 5 4 5 6 4 3 3 3 3 2 1 2 2 4 2 2 3 3 6 7 7 8 7 7 4
3 3 4 7 8 8 7 5 6 5 3 3 3 3 2 3 3 3 3 4 4 4 3 2 2 2 2 4 3 2 2 3 3 4 6 7 7 5
4 3 4 7 7 7 5 6 6 4 2 2 2 3 3 3 2 3 3 4 4 5 5 3 3 3 2 4 4 3 2 2 2 3 3 6 6 7
3 5 6 6 6 4 4 5 4 3 2 3 3 3 3 3 2 2 2 3 3 3 3 4 3 3 3 4 4 3 3 3 2 2 3 3 3 3
3 4 5 5 3 3 3 3 2 2 3 3 3 2 2 2 2 2 2 2 2 3 3 3 3 3 3 4 4 4 3 2 2 3 3 3 3 2
2 1 1 1 1 2 2 2 2 2 2 2 2 2 2 2 2 1 1 1 2 3 3 2 2 2 3 3 3 3 3 3 3 3 3 4 4 3
1 1 2 2 2 2 2 2 2 2 2 2 2 3 3 2 2 2 1 2 2 2 2 2 2 2 2 2 3 3 2 3 3 3 3 3 4 3
1 1 2 2 2 2 2 2 2 2 2 2 2 3 2 2 2 2 2 2 2 2 2 2 1 1 2 3 3 2 2 3 3 3 3 3 4 4
1 2 2 2 2 2 2 2 2 2 2 2 2 2 2 2 2 2 2 2 2 2 2 2 1 1 2 3 3 3 4 3 3 3 3 3 4 5
1 2 2 2 2 2 2 2 2 2 2 2 2 3 2 2 2 2 2 3 2 2 3 3 3 3 2 1 2 3 2 3 4 4 4 3 3 3
2 2 2 2 2 2 2 2 2 2 2 2 2 2 2 2 2 2 2 2 2 2 2 2 2 1 1 1 3 3 3 4 4 5 5 4 3 2
2 2 2 2 2 2 2 2 2 2 2 2 2 2 2 2 2 2 2 2 2 1 1 1 1 1 2 2 2 2 3 4 3 3 3 4 5 5
Wind_Direction
225 228 234 242 239 241 233 217 224 270 277 265 272 273 280 273 281 283 278 288 297 298 297 297 296 294 293 292 291 291 291 292 294 292 292 293 294 292
218 220 236 242 241 238 234 241 232 240 264 264 258 278 286 289 294 296 280 293 294 294 294 294 294 294 292 293 289 289 287 288 292 289 289 290 291 292
226 222 233 235 236 239 239 241 242 236 259 275 268 275 269 277 298 295 288 277 281 290 293 293 293 291 293 296 295 291 290 289 291 288 288 287 289 291
228 226 234 229 233 235 232 240 243 238 248 272 282 280 273 278 286 292 297 295 285 290 295 295 292 293 295 295 294 291 290 292 290 287 287 289 290 291
226 226 232 223 235 235 233 237 241 247 243 257 274 273 276 286 300 302 298 291 291 295 298 296 295 298 297 294 292 289 291 293 291 288 286 288 290 291
230 229 231 226 231 230 234 236 235 242 245 253 267 273 270 285 282 299 309 305 300 306 301 301 300 301 299 297 295 291 293 294 290 288 286 287 288 289
240 238 238 238 238 234 235 229 223 231 236 244 256 269 267 285 281 282 288 300 295 290 299 301 300 296 296 295 295 294 292 291 289 287 287 287 288 288
244 247 245 244 247 246 245 242 230 229 232 236 247 253 257 255 265 271 285 304 300 289 299 298 295 290 293 289 295 297 297 294 292 291 288 287 286 285
243 246 252 253 251 242 247 250 247 245 237 235 243 245 245 245 244 260 269 275 273 281 294 285 285 283 291 295 297 297 301 299 300 302 303 303 302 300
247 241 244 252 246 230 232 242 246 247 245 239 238 245 243 241 231 240 253 271 279 277 256 274 285 289 299 294 300 304 302 305 309 311 313 315 319 318
256 248 243 248 249 239 231 243 254 254 253 249 250 254 258 259 256 252 269 279 287 282 242 260 287 303 299 288 301 309 314 318 322 322 321 322 321 317
266 256 250 252 250 241 228 229 244 254 250 258 257 261 255 252 253 233 227 253 278 279 242 256 279 312 308 296 297 306 311 318 321 320 320 322 319 315
260 264 260 260 257 249 240 230 240 246 235 234 247 254 249 240 239 234 230 231 249 260 250 254 271 276 268 296 303 294 292 304 311 316 323 325 321 318
255 262 264 267 260 253 249 245 244 244 224 222 236 248 252 254 257 255 250 246 243 249 248 239 253 254 267 283 288 303 312 302 303 309 312 315 314 311
254 260 268 272 273 259 254 251 244 228 217 226 237 246 247 249 256 266 266 262 266 260 252 247 246 248 245 258 276 288 307 310 304 305 304 301 297 297
270 266 272 283 280 268 258 255 240 223 218 227 239 248 251 250 249 256 272 285 296 294 281 256 244 241 252 259 257 272 278 286 309 308 301 297 293 282
261 273 286 281 275 273 261 250 238 231 235 232 237 245 249 253 261 260 259 278 275 281 296 309 298 269 247 243 253 259 275 285 284 296 300 300 295 285
239 248 256 258 255 256 255 253 241 233 227 233 236 237 240 244 256 260 259 259 268 271 275 289 325 334 325 294 240 249 266 276 286 290 285 287 293 295
241 254 255 255 256 251 248 247 247 241 232 233 237 238 236 233 238 249 254 261 266 269 270 269 273 284 306 309 305 248 253 277 284 287 282 276 281 289
258 256 262 265 266 263 256 254 253 245 234 233 239 239 233 230 233 241 246 255 268 277 284 279 258 246 249 269 283 286 267 264 276 284 289 289 283 284
263 261 261 259 264 265 262 255 250 244 240 237 238 235 227 224 231 237 242 252 261 263 273 280 276 290 283 275 284 295 299 285 277 277 286 288 291 291
256 260 265 264 261 264 264 255 251 251 247 242 246 235 220 216 227 234 229 236 251 264 277 290 304 312 279 260 276 291 309 319 314 305 290 266 253 257
253 255 258 262 260 260 260 259 256 259 255 249 247 235 221 220 222 226 231 231 242 267 289 306 318 311 290 268 276 288 303 313 320 330 322 315 299 285